カタログに戻る

FREGAT DEB

運用中UNKNOWN
NORAD 46111·DEBRIS·🇷🇺 Russia

打ち上げ Jul 18, 2011 から Baikonur Cosmodrome

Loading…

次のパス (今後24時間)

TLE

最新Source: Space-Track

元期: Sep 6, 2026, 16:51 UTC

1 46111U 11037JW  26249.70229689  .00010717  00000-0  28870+0 0  9991
2 46111  50.7520  20.9288 1292112 223.2994 125.8830 10.18717743184124

AllMySatでFREGAT DEBをリアルタイム追跡

Download on the App Store